Flag for Australia Weather past 2 weeks in Wodonga, Victoria, Australia

Now
42 °F

Overcast.


Feels Like: 39 °F
Forecast: 39 / 50 °F
Wind: 6 mph from Northwest

Location: Albury Aeroport Aws

Current Time: Aug 5, 2015 at 12:57:05 AM

Latest Report: Aug 5, 2015 at 12:00 AM


Visibility: N/A

Pressure: 30.11 "Hg

Humidity: 80%

Dew point: 37 °F

Location of WodongaLocation

Historic Weather in Wodonga — Graph

°F

Wodonga temperature yesterday

Maximum temperature yesterday: 47 °F (at 12:00 PM)
Minimum temperature yesterday: 29 °F (at 6:00 AM)
Average temperature yesterday: 39 °F

Past Weeks' High & Low Weather Summary

 TemperatureHumidityPressure
High62 °F (Jul 23, 3:00 PM)100% (Aug 1, 9:00 AM)30.60 "Hg (Aug 1, 9:00 AM)
Low29 °F (Aug 4, 6:00 AM)43% (Aug 3, 5:00 PM)29.90 "Hg (Jul 24, 5:00 PM)
Average46 °F82%30.21 "Hg
* Reported Jul 20 11:00 PM — Aug 4 11:00 PM, Wodonga, Weather by CustomWeather, © 2015

Note: Actual official high and low records may vary slightly from our data, if they occured in-between our weather recording intervals... More about our weather records

Advertising

Wodonga weather history for previous 24 hours

 ConditionsComfort  
Time TempWeatherWind HumidityBarometerVisibility
11:00 PM
Tue, Aug 4
42 °FQuite cool.1 mph78%30.12 "HgN/A
9:00 PM43 °FOvercast.3 mph68%30.15 "HgN/A
8:00 PM43 °FQuite cool.6 mph67%30.17 "HgN/A
6:00 PM43 °FOvercast.6 mph66%30.17 "HgN/A
5:00 PM44 °FQuite cool.9 mph61%30.17 "HgN/A
3:00 PM46 °FOvercast.12 mph55%30.18 "HgN/A
2:00 PM46 °FCool.12 mph53%30.18 "HgN/A
12:00 PM47 °FOvercast.7 mph60%30.23 "HgN/A
11:00 AM45 °FQuite cool.3 mph65%30.26 "HgN/A
9:00 AM36 °FChilly.3 mph85%30.27 "HgN/A
8:00 AM32 °FChilly.2 mph96%30.27 "HgN/A
6:00 AM29 °FChilly.No wind96%30.24 "HgN/A
5:00 AM29 °FChilly.1 mph95%30.23 "HgN/A
3:00 AM31 °FChilly.No wind96%30.23 "HgN/A
2:00 AM32 °FChilly.No wind92%30.23 "HgN/A
12:00 AM36 °FChilly.5 mph82%30.23 "HgN/A
Weather by CustomWeather, © 2015

See weather overviewHow to use our weather pages